CAPE
0 0 0 0 0 0 0 0 0 0 0 0 0 0 0 0 0 0 0 0 0 0 0 0 0 0 0 0 0 2 0 4 184 72 247 287 123 230 163 141 291 112 75 443 358
0 0 0 0 0 0 0 0 0 0 0 0 0 0 0 0 0 0 0 0 0 0 0 0 0 0 0 0 5 12 0 118 137 205 280 207 191 317 260 248 335 299 327 242 49
0 0 0 0 0 0 0 0 0 0 0 0 0 0 0 0 0 0 0 0 0 0 0 0 0 0 0 46 52 176 203 138 144 329 283 211 91 353 449 402 443 301 315 27 0
0 0 0 0 0 0 0 0 0 0 0 0 0 0 0 0 0 0 0 0 0 0 0 0 0 0 0 75 91 151 189 204 298 349 182 271 218 418 484 624 494 456 86 0 0
0 0 0 0 0 0 0 0 0 0 0 0 0 0 0 0 0 0 0 0 0 0 0 0 28 95 222 52 17 60 186 279 255 177 324 440 512 607 548 659 651 326 3 0 0
0 0 0 0 0 0 0 0 0 0 0 0 0 0 0 0 0 0 0 0 0 0 0 0 9 92 144 57 30 182 273 296 251 193 375 530 518 501 628 662 578 251 9 0 0
0 0 0 0 0 0 0 0 0 0 0 0 0 0 0 0 0 0 0 0 0 0 0 0 3 42 19 76 389 292 23 1 152 163 412 524 508 361 555 642 458 264 117 0 0
0 0 0 0 0 0 0 0 0 0 0 0 0 0 0 0 0 0 0 0 0 0 0 0 0 8 73 25 0 38 17 44 133 201 289 32 224 499 479 507 360 333 201 11 0
0 0 0 0 0 0 0 0 0 0 0 0 0 0 0 0 0 0 0 0 0 0 0 0 0 11 10 3 16 18 44 64 204 163 265 225 345 659 478 462 431 358 248 110 7
0 0 0 0 0 0 0 0 0 0 0 0 0 0 0 0 0 0 0 0 0 0 0 0 0 32 2 2 72 75 100 151 230 139 78 284 691 751 408 466 482 393 397 279 150
0 0 0 0 0 0 0 0 0 0 0 0 0 0 0 0 0 0 0 0 0 0 0 0 6 3 84 97 44 40 0 1 26 117 5 129 361 838 480 326 325 305 586 134 217
0 0 0 0 0 0 0 0 0 0 0 0 0 0 0 0 0 0 0 0 0 0 0 0 0 0 0 0 0 0 3 1 49 169 12 265 143 733 624 404 240 360 281 216 208
0 0 0 0 0 0 0 0 0 0 0 0 0 0 0 0 0 0 0 0 0 0 0 0 0 0 0 0 0 0 3 2 6 0 85 230 90 336 470 467 251 212 333 148 163
0 0 0 0 0 0 0 0 0 0 0 0 0 0 0 0 0 0 0 0 0 0 0 0 0 0 0 9 0 6 0 22 66 111 3 35 70 552 512 312 313 330 298 300 215
0 0 0 0 0 0 0 0 0 0 0 0 0 0 0 0 0 0 0 0 0 0 0 0 3 0 4 0 3 0 0 22 4 199 18 0 37 667 724 626 546 413 316 166 150
0 0 0 0 0 0 0 0 0 0 0 0 0 0 0 0 0 0 0 0 0 0 0 0 0 0 0 1 0 0 8 47 37 86 0 0 39 243 344 127 2 533 369 169 137
0 0 0 0 0 0 0 0 0 0 0 0 0 0 0 0 0 0 0 0 0 0 0 0 0 0 7 0 2 4 58 52 60 135 26 38 28 49 1 0 0 37 329 175 67
0 0 0 0 0 0 0 0 0 10 0 0 0 0 0 0 0 0 0 0 0 0 0 0 0 4 10 10 3 6 18 32 2 0 98 44 2 0 19 57 48 36 82 195 151
0 0 0 0 0 0 0 0 0 7 0 0 0 0 0 0 0 0 0 0 0 0 0 0 0 12 1 18 0 22 57 58 17 72 83 15 11 0 26 50 82 38 59 169 246
0 0 0 0 0 0 0 0 0 0 0 0 0 0 0 0 0 0 0 0 0 0 1 0 7 0 0 3 0 3 5 23 25 0 23 30 64 25 35 17 74 134 172 137 227
0 0 0 0 0 0 0 0 0 0 0 0 0 0 0 0 0 0 0 0 0 0 0 0 1 39 3 11 16 0 0 57 0 0 29 10 65 48 84 12 50 103 250 281 287
0 0 0 0 0 0 0 0 0 0 0 0 0 0 0 0 0 1 0 7 0 0 0 0 0 0 8 17 0 0 52 101 48 55 23 86 91 15 14 88 0 49 228 214 254
0 0 0 0 0 0 0 0 0 0 0 0 0 0 0 0 0 0 4 0 0 0 10 24 1 0 2 18 4 0 25 44 0 0 0 24 85 8 131 45 9 92 22 99 149
0 0 0 0 0 0 0 0 0 0 0 0 0 0 0 0 0 0 0 0 0 0 0 10 43 17 0 10 3 13 98 27 45 20 12 42 50 377 58 21 0 0 129 88 185
0 0 0 0 0 0 0 0 0 0 0 0 0 0 0 0 0 0 0 0 0 0 0 0 0 0 0 0 29 27 58 81 42 79 38 14 6 245 6 0 0 6 132 87 290
0 0 0 0 0 0 0 0 0 0 0 0 0 0 0 1 101 226 220 335 4 14 0 174 54 0 27 14 21 36 12 55 39 28 0 0 51 80 51 37 11 0 106 31 3
0 0 0 0 0 0 0 0 0 0 0 0 0 5 0 240 182 156 92 211 262 261 124 35 293 45 136 34 26 18 3 17 10 1 15 118 125 401 324 220 15 0 0 0 13
CIN
-0 -0 -0 -0 -0 -0 -0 -0 -0 -0 -0 -0 -0 -0 -0 -0 -0 -0 -0 -0 -0 -0 -0 -0 -0 -0 -0 -0 -0 -87 -18 -43 -44 -82 -3 -2 -10 -4 -11 -13 -50 -126 -149 -3 -7
-0 -0 -0 -0 -0 -0 -0 -0 -0 -0 -0 -0 -0 -0 -0 -0 -0 -0 -0 -0 -0 -0 -0 -0 -0 -0 -0 -0 -13 -116 -0 -29 -8 -2 -5 -4 -38 -16 -8 -4 -1 -24 -25 -27 -7
-0 -0 -0 -0 -0 -0 -0 -0 -0 -0 -0 -0 -0 -0 -0 -0 -0 -0 -0 -0 -0 -0 -0 -0 -0 -0 -0 -9 -16 -25 -20 -17 -39 -2 -13 -40 -48 -6 -19 -7 -7 -2 -1 -20 -0
-0 -0 -0 -0 -0 -0 -0 -0 -0 -0 -0 -0 -0 -0 -0 -0 -0 -0 -0 -0 -0 -0 -0 -0 -0 -0 -0 -56 -79 -3 -6 -28 -19 -5 -21 -27 -47 -1 -3 -7 -3 -1 -77 -0 -0
-0 -0 -0 -0 -0 -0 -0 -0 -0 -0 -0 -0 -0 -0 -0 -0 -0 -0 -0 -0 -0 -0 -0 -0 -42 -48 -7 -60 -76 -7 -25 -45 -27 -36 -33 -22 -23 -45 -64 -49 -27 -46 -154 -0 -0
-0 -0 -0 -0 -0 -0 -0 -0 -0 -0 -0 -0 -0 -0 -0 -0 -0 -0 -0 -0 -0 -0 -0 -0 -34 -16 -40 -58 -58 -2 -19 -55 -43 -48 -27 -43 -60 -67 -86 -85 -71 -60 -164 -0 -0
-0 -0 -0 -0 -0 -0 -0 -0 -0 -0 -0 -0 -0 -0 -0 -0 -0 -0 -0 -0 -0 -0 -0 -0 -6 -11 -7 -14 -84 -121 -99 -106 -84 -40 -29 -54 -47 -57 -92 -74 -48 -56 -126 -0 -0
-0 -0 -0 -0 -0 -0 -0 -0 -0 -0 -0 -0 -0 -0 -0 -0 -0 -0 -0 -0 -0 -0 -0 -0 -0 -5 -34 -24 -0 -202 -301 -139 -35 -36 -112 -108 -152 -82 -112 -62 -38 -62 -98 -94 -0
-0 -0 -0 -0 -0 -0 -0 -0 -0 -0 -0 -0 -0 -0 -0 -0 -0 -0 -0 -0 -0 -0 -0 -0 -0 -115 -109 -37 -47 -314 -137 -83 -8 -20 -55 -131 -75 -99 -123 -67 -56 -62 -96 -128 -93
-0 -0 -0 -0 -0 -0 -0 -0 -0 -0 -0 -0 -0 -0 -0 -0 -0 -0 -0 -0 -0 -0 -0 -0 -0 -33 -125 -96 -35 -14 -34 -27 -7 -9 -46 -3 -20 -104 -129 -77 -23 -42 -45 -63 -87
-0 -0 -0 -0 -0 -0 -0 -0 -0 -0 -0 -0 -0 -0 -0 -0 -0 -0 -0 -0 -0 -0 -0 -0 -14 -7 -8 -63 -15 -3 -0 -86 -14 -43 -21 -4 -5 -57 -115 -118 -72 -36 -16 -83 -66
-0 -0 -0 -0 -0 -0 -0 -0 -0 -0 -0 -0 -0 -0 -0 -0 -0 -0 -0 -0 -0 -0 -0 -0 -0 -0 -0 -0 -0 -0 -5 -4 -10 -34 -91 -2 -14 -15 -75 -103 -89 -35 -15 -39 -65
-0 -0 -0 -0 -0 -0 -0 -0 -0 -0 -0 -0 -0 -0 -0 -0 -0 -0 -0 -0 -0 -0 -0 -0 -0 -0 -0 -0 -0 -0 -16 -1 -3 -0 -49 -48 -22 -6 -54 -69 -67 -64 -50 -51 -66
-0 -0 -0 -0 -0 -0 -0 -0 -0 -0 -0 -0 -0 -0 -0 -0 -0 -0 -0 -0 -0 -0 -0 -0 -0 -0 -0 -10 -0 -25 -0 -6 -3 -2 -65 -66 -6 -17 -54 -89 -74 -47 -30 -22 -51
-0 -0 -0 -0 -0 -0 -0 -0 -0 -0 -0 -0 -0 -0 -0 -0 -0 -0 -0 -0 -0 -0 -0 -0 -10 -0 -11 -1 -1 -0 -0 -34 -48 -37 -141 -0 -164 -8 -8 -4 -24 -52 -54 -50 -28
-0 -0 -0 -0 -0 -0 -0 -0 -0 -0 -0 -0 -0 -0 -0 -0 -0 -0 -0 -0 -0 -0 -0 -0 -0 -0 -0 -15 -0 -0 -17 -33 -39 -62 -0 -0 -150 -19 -32 -12 -10 -21 -32 -49 -36
-0 -0 -0 -0 -0 -0 -0 -0 -0 -0 -0 -0 -0 -0 -0 -0 -0 -0 -0 -0 -0 -0 -0 -0 -0 -0 -49 -22 -12 -13 -9 -7 -35 -12 -26 -17 -26 -3 -9 -0 -0 -8 -15 -57 -95
-0 -0 -0 -0 -0 -0 -0 -0 -0 -2 -0 -0 -0 -0 -0 -0 -0 -0 -0 -0 -0 -0 -0 -0 -0 -14 -19 -27 -21 -21 -33 -23 -20 -0 -6 -49 -15 -0 -44 -62 -118 -76 -43 -13 -51
-0 -0 -0 -0 -0 -0 -0 -0 -0 -5 -0 -0 -0 -0 -0 -0 -0 -0 -0 -0 -0 -0 -0 -3 -4 -53 -29 -11 -0 -30 -33 -6 -4 -2 -3 -36 -57 -6 -37 -12 -64 -55 -58 -26 -11
-0 -0 -0 -0 -0 -0 -0 -0 -0 -0 -0 -0 -0 -0 -0 -0 -0 -0 -0 -0 -0 -0 -1 -0 -4 -12 -2 -6 -0 -14 -5 -20 -25 -0 -37 -61 -33 -116 -12 -15 -4 -24 -33 -42 -33
-0 -0 -0 -0 -0 -0 -0 -0 -0 -0 -0 -0 -0 -0 -0 -0 -0 -0 -0 -0 -0 -0 -0 -0 -1 -5 -24 -13 -51 -0 -0 -22 -0 -0 -18 -3 -20 -33 -58 -26 -38 -0 -9 -26 -15
-0 -0 -0 -0 -0 -0 -0 -0 -0 -0 -0 -0 -0 -0 -0 -0 -0 -5 -0 -7 -0 -0 -0 -0 -0 -0 -10 -20 -2 -0 -8 -30 -20 -44 -28 -15 -13 -101 -71 -96 -8 -9 -2 -11 -18
-0 -0 -0 -0 -0 -0 -0 -0 -0 -0 -0 -0 -0 -0 -0 -0 -0 -0 -2 -0 -0 -0 -14 -15 -1 -0 -38 -16 -68 -0 -15 -58 -0 -0 -0 -79 -10 -67 -71 -169 -122 -106 -380 -10 -31
-0 -0 -0 -0 -0 -0 -0 -0 -0 -0 -0 -0 -0 -0 -0 -0 -0 -0 -0 -0 -0 -0 -0 -27 -39 -37 -1 -7 -25 -72 -19 -50 -29 -78 -144 -6 -10 -56 -182 -190 -121 -10 -90 -5 -6
-0 -0 -0 -0 -0 -0 -0 -0 -0 -0 -0 -0 -0 -0 -0 -0 -0 -0 -0 -0 -0 -0 -0 -0 -0 -0 -0 -0 -6 -44 -6 -1 -33 -17 -4 -20 -22 -87 -186 -0 -0 -112 -28 -9 -2
-0 -0 -0 -0 -0 -0 -0 -0 -0 -0 -0 -0 -0 -0 -0 -3 -4 -6 -7 -9 -4 -62 -0 -25 -37 -0 -24 -14 -12 -55 -23 -16 -3 -16 -0 -0 -6 -48 -68 -114 -45 -3 -23 -63 -29
-0 -0 -0 -0 -0 -0 -0 -0 -0 -0 -0 -0 -0 -50 -0 -8 -23 -34 -32 -22 -11 -6 -17 -25 -6 -8 -4 -5 -15 -34 -4 -4 -9 -33 -43 -19 -5 -4 -8 -63 -99 -0 -0 -0 -65
Wind_Speed
26 26 27 25 23 20 16 13 12 11 13 14 15 15 15 16 17 22 22 18 17 19 16 14 12 12 11 11 16 26 9 14 26 25 25 24 26 22 15 17 22 23 22 21 21
27 28 28 27 25 23 19 16 13 13 14 16 16 16 16 15 21 23 19 20 18 19 16 14 13 13 11 11 20 27 18 23 27 27 27 27 27 23 22 19 21 22 22 21 22
29 29 29 28 26 25 22 19 16 14 15 16 17 17 17 17 21 21 23 21 21 19 15 13 13 19 14 19 14 25 24 26 26 26 24 24 25 27 26 22 23 23 23 22 22
29 29 29 29 28 26 25 22 18 15 15 16 18 18 17 21 19 17 22 22 21 17 16 13 8 15 15 17 14 21 23 24 24 25 25 25 24 23 24 25 23 22 22 22 23
28 28 29 29 28 28 26 25 21 17 16 17 19 19 21 21 18 22 23 21 20 18 17 13 12 14 19 17 11 17 24 25 24 25 25 26 26 24 21 22 22 21 21 22 22
26 27 28 28 29 29 28 26 24 19 17 17 19 20 24 19 14 27 26 23 20 19 16 14 8 17 20 23 19 20 23 23 23 25 24 23 24 23 21 20 20 19 20 20 21
26 26 27 27 29 30 29 26 23 19 17 18 19 22 24 19 21 27 26 23 21 19 15 14 13 11 13 20 24 12 9 10 20 22 22 22 18 19 19 18 18 18 19 19 20
26 26 26 27 29 30 29 26 24 21 19 18 19 23 21 16 22 27 26 22 20 18 15 13 15 11 19 17 24 15 8 14 22 20 20 21 15 16 17 17 16 16 16 16 18
26 26 26 27 28 29 29 27 23 20 20 19 16 0 18 16 26 28 26 23 20 18 16 14 12 21 22 9 5 14 16 16 20 18 15 14 13 15 15 15 14 14 14 13 14
25 25 26 27 28 28 26 24 20 19 15 17 25 12 17 19 22 27 27 23 22 19 17 15 14 12 14 11 6 15 7 16 19 16 14 11 14 15 15 12 11 12 11 13 11
24 24 25 26 27 26 23 20 20 14 17 17 9 6 9 4 6 27 27 24 23 20 17 17 14 6 13 13 8 24 23 18 4 16 14 10 13 11 12 11 11 12 11 11 10
25 24 24 25 25 23 20 18 16 20 23 26 26 24 21 6 4 30 14 26 25 21 15 14 13 2 15 15 19 22 18 10 9 13 17 13 14 10 10 9 10 11 10 9 12
24 25 25 25 23 18 18 17 19 20 20 25 20 6 1 17 26 23 22 25 26 18 19 17 19 20 18 20 24 23 25 16 19 7 7 6 13 8 10 10 9 8 9 9 11
25 24 25 25 18 19 20 18 18 16 19 7 3 2 1 6 21 26 22 27 27 25 22 19 22 21 18 20 16 22 7 15 23 27 26 25 14 9 10 10 8 8 8 8 9
25 24 23 22 20 18 18 19 18 16 15 6 11 3 11 20 19 27 20 25 28 26 23 21 24 22 23 13 23 19 27 22 22 30 23 16 8 14 11 8 6 6 7 7 8
26 25 23 19 20 17 18 20 18 16 17 8 5 5 7 18 20 15 21 21 29 29 27 25 21 24 24 23 19 25 21 20 6 13 23 10 7 13 13 15 17 7 8 7 9
26 26 24 22 21 20 18 18 15 18 12 9 5 6 8 5 19 6 14 23 24 10 20 21 20 4 20 21 20 24 30 13 24 18 20 21 10 16 20 22 19 15 8 8 9
27 27 26 23 21 20 18 19 16 15 12 11 13 7 4 4 7 5 12 25 23 26 19 19 11 26 24 8 16 22 17 22 21 28 27 25 20 15 19 18 19 19 14 8 7
27 25 23 24 20 20 20 19 23 17 13 16 10 13 9 4 7 13 19 20 22 20 24 24 22 29 3 5 14 16 17 24 29 27 17 22 12 19 23 15 19 18 16 10 6
23 25 28 12 16 21 22 24 21 18 17 19 20 10 9 5 6 7 7 15 20 23 21 20 18 5 12 24 9 2 23 28 20 25 30 17 27 20 8 19 20 19 16 13 10
22 20 12 15 15 21 25 22 16 15 17 19 18 15 21 8 5 8 9 3 11 21 4 8 19 15 10 17 23 22 14 21 18 19 21 30 29 23 29 21 28 28 14 12 9
22 22 11 14 20 21 27 21 18 19 16 19 19 19 19 18 12 17 12 12 7 3 13 15 18 31 27 16 16 12 27 24 22 21 27 24 20 22 20 25 17 1 14 11 10
23 27 15 16 20 24 20 22 19 19 17 16 17 17 16 19 17 21 14 14 15 16 17 20 12 20 20 17 19 24 20 18 18 24 19 15 28 21 21 28 28 26 20 11 12
22 22 17 19 27 24 20 19 16 14 20 19 20 18 18 18 12 15 12 13 15 16 16 17 19 21 29 33 35 16 21 14 18 18 15 31 33 29 25 24 20 14 7 10 11
22 23 18 19 25 25 21 19 17 16 17 16 19 20 16 17 13 10 16 9 10 12 13 10 12 10 19 20 28 10 4 5 10 8 13 31 31 21 22 20 11 6 19 7 17
23 21 20 23 20 17 18 22 21 18 16 15 18 22 14 17 19 19 19 18 10 7 6 8 10 10 21 21 26 28 35 31 22 23 25 30 28 32 21 26 22 25 19 31 35
24 26 22 23 20 23 23 21 19 20 17 23 20 20 14 18 17 20 19 17 16 15 6 3 9 11 10 20 15 9 4 16 20 23 27 27 29 29 29 26 27 28 30 31 33
Wind_Direction
314 315 314 309 307 304 298 295 289 272 254 241 235 230 234 239 225 180 174 199 211 146 188 204 183 201 193 199 61 16 354 113 58 77 62 54 42 38 2 18 33 70 81 66 50
312 313 312 309 306 303 297 294 286 271 254 243 238 231 233 235 192 170 205 193 182 151 183 179 230 235 212 176 64 42 121 56 52 58 52 50 54 66 53 43 45 49 56 65 48
312 311 310 310 306 303 299 295 285 271 254 238 235 231 229 218 172 156 191 191 167 154 203 228 241 282 242 35 330 57 59 47 42 48 51 58 49 84 69 52 75 78 70 64 65
309 307 309 309 306 303 300 297 287 271 250 236 227 226 226 182 149 224 201 189 169 181 200 198 216 187 174 352 323 16 25 28 38 29 36 56 65 63 73 83 83 65 72 70 63
299 302 306 306 306 302 299 297 289 269 250 236 226 225 194 164 180 201 199 202 186 186 189 198 156 147 70 9 224 39 58 61 39 46 60 61 56 67 50 67 74 78 78 70 74
289 295 301 302 304 302 298 295 292 270 251 235 227 229 183 179 240 179 178 183 200 181 205 189 181 136 56 82 110 88 55 76 58 74 74 57 78 86 96 79 73 79 74 74 66
284 291 295 297 301 302 298 293 290 269 254 245 233 211 189 208 211 183 190 178 200 210 228 229 251 196 289 48 16 329 204 227 90 74 80 84 101 76 99 97 85 82 86 80 78
282 287 290 295 301 301 298 290 284 265 253 254 240 201 194 254 217 190 199 185 211 209 207 220 209 209 17 98 51 90 206 186 105 93 77 50 149 96 109 110 91 98 93 89 73
281 285 288 295 299 300 297 289 277 260 253 248 261 266 201 258 178 188 191 189 195 210 217 218 201 8 337 251 153 106 96 141 82 86 97 101 132 138 119 114 98 97 95 93 89
276 282 288 295 297 299 291 285 289 276 275 257 227 255 201 162 145 194 204 204 203 222 197 170 123 82 91 144 143 79 334 97 49 77 70 140 73 99 112 118 92 97 91 94 98
269 275 284 291 295 295 294 279 286 294 273 273 286 248 3 39 262 214 201 203 208 207 195 190 148 187 80 166 190 345 331 276 100 49 61 72 35 91 100 100 81 64 92 81 91
270 274 282 287 288 283 272 300 305 287 264 252 242 173 255 308 136 187 136 205 198 200 200 215 203 120 260 258 283 321 64 230 153 65 29 27 18 102 89 81 83 89 98 93 90
268 278 285 285 282 265 276 295 280 282 270 245 263 271 98 272 179 164 160 176 200 188 218 229 236 314 250 267 319 336 302 274 289 215 62 78 212 64 63 86 93 100 111 105 104
270 274 286 289 264 277 259 289 286 289 265 314 328 253 52 121 176 175 165 181 203 215 223 223 245 277 241 335 57 338 148 259 304 304 323 305 343 61 70 65 74 94 102 116 108
270 271 274 281 256 262 281 272 285 270 290 354 112 317 125 162 156 183 166 181 200 216 229 230 265 274 292 27 291 272 317 324 306 338 358 258 51 67 61 48 85 105 106 99 88
269 271 277 283 247 212 264 270 244 274 274 324 0 347 105 150 162 154 169 175 205 226 229 230 264 272 258 277 262 307 360 8 34 28 37 154 77 47 67 40 26 104 103 96 81
268 266 263 254 255 271 264 242 266 275 321 325 3 69 113 108 167 124 159 178 183 192 204 211 209 349 315 249 333 272 318 21 2 21 10 31 31 18 22 19 27 32 90 89 61
268 264 249 223 231 240 246 245 275 296 313 319 296 342 330 54 136 148 153 182 183 201 207 213 340 281 332 179 359 1 9 359 9 357 347 5 7 17 4 28 43 30 31 92 83
269 259 261 223 194 247 243 249 272 307 307 285 324 297 307 69 109 146 174 179 183 182 205 229 317 288 86 157 3 4 0 349 337 347 347 354 33 7 354 26 23 27 31 45 71
269 262 243 282 282 237 242 238 266 286 286 260 261 313 327 341 344 132 139 169 183 192 192 211 328 38 241 311 189 40 343 339 3 351 346 294 358 358 40 17 17 19 24 32 46
264 265 288 278 281 247 235 257 284 304 270 261 280 298 270 336 357 336 333 114 166 193 143 291 310 346 11 338 332 344 273 358 4 351 348 341 358 17 354 9 4 354 18 32 40
256 257 287 280 262 257 238 273 278 268 282 265 270 269 283 297 315 307 331 315 321 149 318 314 312 262 250 344 338 10 327 1 345 339 338 345 -0 360 348 350 5 291 24 34 32
255 249 281 270 259 259 272 271 276 269 280 285 282 283 303 288 305 281 337 337 326 307 315 312 327 310 309 226 349 309 275 351 2 351 233 349 356 1 359 358 342 325 307 22 28
257 256 270 264 257 264 274 276 284 286 269 279 272 291 290 300 344 318 330 351 332 314 319 316 312 309 288 286 292 332 335 356 351 351 345 342 346 2 6 6 28 334 331 31 41
253 255 273 266 258 259 273 281 278 284 281 292 285 279 307 306 332 7 324 17 7 348 339 339 337 344 231 236 258 317 314 336 340 327 337 341 352 9 8 356 347 28 328 49 56
252 264 267 268 272 266 273 270 273 281 290 291 284 278 318 299 315 311 327 329 7 44 44 17 354 210 243 244 326 313 295 289 339 346 345 344 352 345 10 13 19 10 33 7 2
253 266 268 262 269 267 265 269 277 278 289 271 288 299 309 311 318 310 322 329 334 348 43 52 358 351 223 345 356 358 17 339 349 351 341 349 353 359 353 4 2 9 12 6 3